Location: Düngen
(52.0952°N, 10.0219°E)
Time: 14:31:11
(UTC+00:00)

SJ 16-02 - Pass Details

Date: 11 March 2026
Orbit: 582 x 593 km, 75.0° (Epoch: 14 April)

Event Time Altitude Azimuth Distance (km) Brightness Sun altitude
Exits shadow 21:15:51 14° 1° (N) 1,698 4.0 -34.0°
Drops below altitude 10° 21:16:34 10° 7° (N) 1,939 4.3 -34.0°
Sets 21:19:02 0° 18° (NNE) 2,846 5.1 -34.3°
